Date String (YYYY-MM-DD hh:mm:ss) UTC,Instrument flags,Ambient pressure (hPa),Sample flow (lpm),Bypass flow (lpm),Sample temperature (°C),Ambient temperature (°C),ASC tube jacket temperature (°C),LED temperature (°C),Box temperature (°C),Sample RH (%),Span deviation,Mass concentration (μg/m³),Mass concentration (μg/m³),Mass concentration (μg/m³)
DateTimeUTC,F1_M11,P_M11,Q1_M11,Q2_M11,T1_M11,T2_M11,T3_M11,T4_M11,T5_M11,U1_M11,ZSPAN_M11,X2_M11,X0_M11,X1_M11
2023-05-04 00:00:00,,0824.9,5.01,0.00,30.0,26.4,00.0,38.2,31.3,10.6,0000.0,0005.00,0017.35,0003.18
2023-05-04 00:01:00,,0825.0,5.01,0.00,29.9,26.7,00.0,38.2,31.3,10.3,0000.0,0005.02,0016.97,0003.18
2023-05-04 00:02:00,,0824.9,4.99,0.00,29.9,27.1,00.0,38.3,31.4,10.0,0000.0,0005.10,0017.87,0003.19
2023-05-04 00:03:00,,0824.9,5.02,0.00,29.9,27.4,00.0,38.3,31.4,10.4,0000.0,0005.15,0018.56,0003.20
2023-05-04 00:04:00,,0824.9,5.01,0.00,29.9,27.7,00.0,38.3,31.4,09.9,0000.0,0005.14,0018.25,0003.20
2023-05-04 00:05:00,,0824.9,4.98,0.00,30.0,28.0,00.0,38.3,31.5,09.9,0000.0,0005.13,0017.94,0003.22
2023-05-04 00:06:00,,0824.9,5.01,0.00,30.0,28.2,00.0,38.3,31.6,10.1,0000.0,0005.10,0017.13,0003.21
2023-05-04 00:07:00,,0824.9,5.00,0.00,30.0,28.4,00.0,38.3,31.6,10.2,0000.0,0005.00,0017.22,0003.20
2023-05-04 00:08:00,,0824.9,5.00,0.00,30.0,28.6,00.0,38.3,31.7,10.5,0000.0,0004.98,0017.55,0003.20
2023-05-04 00:09:00,,0824.9,5.00,0.00,30.1,28.7,00.0,38.3,31.7,10.4,0000.0,0004.95,0017.05,0003.19
2023-05-04 00:10:00,,0824.9,5.00,0.00,30.1,28.8,00.0,38.4,31.8,10.5,0000.0,0005.01,0017.15,0003.19
2023-05-04 00:11:00,,0824.9,4.99,0.00,30.1,28.9,00.0,38.4,31.8,10.5,0000.0,0005.04,0017.37,0003.20
2023-05-04 00:12:00,,0824.9,5.00,0.00,30.2,28.7,00.0,38.4,31.8,11.0,0000.0,0005.07,0017.47,0003.21
2023-05-04 00:13:00,,0824.9,4.99,0.00,30.1,27.0,00.0,38.3,31.6,11.3,0000.0,0005.03,0016.08,0003.22
2023-05-04 00:14:00,,0824.9,5.01,0.00,30.1,26.3,00.0,38.2,31.5,11.1,0000.0,0004.96,0015.04,0003.21
2023-05-04 00:15:00,,0824.9,5.00,0.00,30.0,26.4,00.0,38.2,31.3,11.1,0000.0,0005.04,0015.72,0003.22
2023-05-04 00:16:00,,0824.9,5.00,0.00,29.9,26.7,00.0,38.3,31.3,11.3,0000.0,0005.07,0016.69,0003.22
2023-05-04 00:17:00,,0824.8,5.00,0.00,29.9,27.1,00.0,38.3,31.4,11.5,0000.0,0005.13,0018.00,0003.23
2023-05-04 00:18:00,,0824.9,4.99,0.00,29.9,27.4,00.0,38.3,31.4,11.1,0000.0,0005.18,0017.12,0003.23
2023-05-04 00:19:00,,0824.9,4.99,0.00,30.0,27.7,00.0,38.3,31.5,10.7,0000.0,0005.24,0016.89,0003.23
2023-05-04 00:20:00,,0824.9,5.01,0.00,30.0,28.0,00.0,38.3,31.6,10.9,0000.0,0005.30,0016.80,0003.24
2023-05-04 00:21:00,,0824.9,4.99,0.00,30.0,28.2,00.0,38.3,31.6,11.1,0000.0,0005.28,0016.71,0003.25
2023-05-04 00:22:00,,0824.9,5.00,0.00,30.0,28.4,00.0,38.3,31.6,10.5,0000.0,0005.32,0016.86,0003.25
2023-05-04 00:23:00,,0824.9,4.99,0.00,30.0,28.5,00.0,38.3,31.7,10.9,0000.0,0005.33,0016.93,0003.26
2023-05-04 00:24:00,,0824.8,5.02,0.00,30.1,28.7,00.0,38.3,31.7,10.3,0000.0,0005.32,0017.45,0003.24
2023-05-04 00:25:00,,0824.8,4.99,0.00,30.1,28.8,00.0,38.4,31.7,10.4,0000.0,0005.33,0017.60,0003.25
2023-05-04 00:26:00,,0824.9,5.00,0.00,30.1,28.9,00.0,38.4,31.8,10.6,0000.0,0005.27,0017.35,0003.23
2023-05-04 00:27:00,,0824.9,4.99,0.00,30.2,29.0,00.0,38.4,31.9,10.4,0000.0,0005.23,0016.95,0003.23
2023-05-04 00:28:00,,0824.9,5.00,0.00,30.2,28.8,00.0,38.4,31.9,10.5,0000.0,0005.18,0015.53,0003.25
2023-05-04 00:29:00,,0824.9,5.00,0.00,30.2,26.9,00.0,38.3,31.6,11.0,0000.0,0005.18,0014.97,0003.25
2023-05-04 00:30:00,,0824.9,5.01,0.00,30.1,25.4,00.0,38.3,31.3,10.7,0000.0,0005.08,0013.97,0003.25
2023-05-04 00:31:00,,0824.9,5.01,0.00,30.0,25.4,00.0,38.2,31.2,10.5,0000.0,0005.07,0014.70,0003.24
2023-05-04 00:32:00,,0824.9,5.01,0.00,29.9,25.8,00.0,38.2,31.1,11.2,0000.0,0005.02,0014.77,0003.24
2023-05-04 00:33:00,,0824.9,5.00,0.00,29.8,26.2,00.0,38.2,31.2,11.2,0000.0,0004.96,0014.41,0003.25
2023-05-04 00:34:00,,0824.9,5.00,0.00,29.8,26.6,00.0,38.2,31.2,11.0,0000.0,0004.90,0014.35,0003.24
2023-05-04 00:35:00,,0824.9,5.00,0.00,29.8,27.0,00.0,38.2,31.3,11.3,0000.0,0004.93,0013.87,0003.26
2023-05-04 00:36:00,,0824.9,4.99,0.00,29.8,27.4,00.0,38.2,31.3,11.8,0000.0,0004.94,0013.51,0003.26
2023-05-04 00:37:00,,0824.9,5.01,0.00,29.8,27.7,00.0,38.2,31.4,11.5,0000.0,0004.91,0013.09,0003.28
2023-05-04 00:38:00,,0824.9,5.01,0.00,29.8,27.9,00.0,38.2,31.4,11.2,0000.0,0004.92,0012.46,0003.28
2023-05-04 00:39:00,,0824.9,5.00,0.00,29.9,28.1,00.0,38.2,31.5,11.4,0000.0,0004.99,0012.90,0003.29
2023-05-04 00:40:00,,0824.9,5.00,0.00,29.9,28.3,00.0,38.2,31.5,11.2,0000.0,0005.00,0013.99,0003.30
2023-05-04 00:41:00,,0824.9,4.99,0.00,29.9,28.4,00.0,38.2,31.6,11.2,0000.0,0005.03,0014.33,0003.31
2023-05-04 00:42:00,,0824.9,5.01,0.00,30.0,28.6,00.0,38.2,31.6,11.3,0000.0,0005.07,0014.02,0003.31
2023-05-04 00:43:00,,0824.8,5.01,0.00,30.0,28.7,00.0,38.3,31.7,11.2,0000.0,0005.12,0013.71,0003.32
2023-05-04 00:44:00,,0824.9,4.99,0.00,30.0,28.8,00.0,38.3,31.7,11.2,0000.0,0005.16,0013.73,0003.33
2023-05-04 00:45:00,,0824.9,5.00,0.00,30.1,28.9,00.0,38.3,31.7,11.0,0000.0,0005.22,0013.77,0003.34
2023-05-04 00:46:00,,0824.9,5.00,0.00,30.1,28.9,00.0,38.3,31.8,11.1,0000.0,0005.20,0013.81,0003.35
2023-05-04 00:47:00,,0824.9,5.00,0.00,30.1,29.0,00.0,38.4,31.8,11.1,0000.0,0005.27,0014.38,0003.36
2023-05-04 00:48:00,,0824.9,5.00,0.00,30.2,29.0,00.0,38.4,31.9,11.3,0000.0,0005.36,0015.46,0003.36
2023-05-04 00:49:00,,0824.9,4.99,0.00,30.2,27.5,00.0,38.3,31.6,11.2,0000.0,0005.37,0015.86,0003.37
2023-05-04 00:50:00,,0824.9,5.00,0.00,30.0,25.6,00.0,38.2,31.2,11.1,0000.0,0005.38,0015.82,0003.36
2023-05-04 00:51:00,,0824.9,5.01,0.00,29.9,25.2,00.0,38.1,31.1,11.1,0000.0,0005.35,0015.83,0003.36
2023-05-04 00:52:00,,0824.9,5.01,0.00,29.8,25.5,00.0,38.1,31.0,11.1,0000.0,0005.34,0016.39,0003.36
2023-05-04 00:53:00,,0824.9,5.00,0.00,29.8,26.0,00.0,38.1,31.0,11.2,0000.0,0005.32,0016.55,0003.37
2023-05-04 00:54:00,,0824.9,5.00,0.00,29.7,26.4,00.0,38.1,31.1,11.1,0000.0,0005.27,0016.36,0003.36
2023-05-04 00:55:00,,0824.9,5.00,0.00,29.7,26.8,00.0,38.1,31.1,11.2,0000.0,0005.24,0016.30,0003.35
2023-05-04 00:56:00,,0824.9,5.01,0.00,29.7,27.2,00.0,38.1,31.2,11.2,0000.0,0005.24,0018.08,0003.35
2023-05-04 00:57:00,,0824.9,4.98,0.00,29.7,27.5,00.0,38.1,31.3,11.0,0000.0,0005.25,0019.70,0003.35
2023-05-04 00:58:00,,0824.9,5.00,0.00,29.8,27.8,00.0,38.1,31.3,11.2,0000.0,0005.24,0020.21,0003.35
2023-05-04 00:59:00,,0824.9,5.01,0.00,29.8,28.0,00.0,38.1,31.4,11.1,0000.0,0005.22,0020.65,0003.35
